Regional Weather Roundup
Issued by NWS Albany, NY

Home | Current Version | Previous Version | Text Only | Print | Product List | Glossary On
Versions: 1 2 3 4 5 6 7 8 9 10 11 12 13 14 15 16 17 18 19 20 21 22 23 24 25 26 27 28
000
ASUS41 KALY 240310
RWRALY

NEW YORK STATE HOURLY WEATHER ROUNDUP
NATIONAL WEATHER SERVICE ALBANY NY
1100 PM EDT TUE AUG 23 2016

NOTE: "FAIR" INDICATES FEW OR NO CLOUDS BELOW 12,000 FEET WITH NO
SIGNIFICANT WEATHER AND/OR NO OBSTRUCTIONS TO VISIBILITY.

NYZ032-033-038>043-046>054-057>066-NYZ062>081-082-084-240400-
EAST


CITY           SKY/WX    TMP DP  RH WIND       PRES   REMARKS
ALBANY         CLEAR     66  59  78 CALM      30.24S
GLENS FALLS    CLEAR     60  56  86 CALM      30.24R
POUGHKEEPSIE   CLEAR     64  59  83 CALM      30.25R
NEWBURGH       CLEAR     66  59  77 W5        30.27S
MONTGOMERY     CLEAR     63  60  90 CALM      30.26S
WHITE PLAINS   CLEAR     65  59  81 CALM      30.27S
ISLIP          CLEAR     70  60  70 SW7       30.27S
NEW YORK CITY  PTCLDY    76  59  55 S10       30.26S
CENTRAL PARK   CLEAR     75  56  51 W3        30.29S
$$

NYZ005>009-017-018-044>046-055-056-240400-
CENTRAL


CITY           SKY/WX    TMP DP  RH WIND       PRES   REMARKS
FULTON         CLEAR     62  60  93 CALM      30.24R
SYRACUSE       PTCLDY    65  59  81 CALM      30.23R
ROME           CLEAR     63  59  87 SE5       30.26R
ELMIRA         CLEAR     60  55  83 CALM      30.27R
BINGHAMTON     CLEAR     66  53  63 S6        30.29R
MONTICELLO     CLEAR     59  55  88 NW3       30.31R
$$

NYZ026>034-041>043-087-240400-
NORTH


CITY           SKY/WX    TMP DP  RH WIND       PRES   REMARKS
WATERTOWN      CLEAR     66  57  72 S5        30.22R
FORT DRUM      NOT AVBL
MASSENA        CLEAR     68  57  68 SW9       30.19R
SARANAC LAKE   CLEAR     53  51  93 CALM      30.25R
PLATTSBURGH    CLEAR     66  56  70 CALM      30.18R
$$

NYZ001>004-010>016-019>021-085-240400-
WEST


CITY           SKY/WX    TMP DP  RH WIND       PRES   REMARKS
NIAGARA FALLS  PTCLDY    69  58  67 SW8       30.24S
BUFFALO        PTCLDY    69  59  70 S7        30.25S
DUNKIRK        CLEAR     62  59  90 S3        30.27R
JAMESTOWN      CLEAR     64  55  72 CALM      30.30S
WELLSVILLE     CLEAR     64  55  72 CALM      30.34R
ROCHESTER      CLEAR     65  59  81 SW5       30.25S
PENN YAN       CLEAR     65  57  75 SW5       30.27R
$$

             KEY
       WCI = WIND CHILL INDEX
       VSB = VISIBILITY
       HX  = HEAT INDEX
$$




USA.gov is the U.S. government's official web portal to all federal, state and local government web resources and services.